TimeCDT,TemperatureF,Dew PointF,Humidity,Sea Level PressureIn,VisibilityMPH,Wind Direction,Wind SpeedMPH,Gust SpeedMPH,PrecipitationIn,Events,Conditions,WindDirDegrees,DateUTC
12:42 AM,64.4,60.8,88,30.18,10.0,SE,8.1,-,N/A,,Mostly Cloudy,140,2013-08-17 05:42:00
12:53 AM,64.0,61.0,90,30.16,10.0,SSE,9.2,-,N/A,,Overcast,150,2013-08-17 05:53:00
1:53 AM,64.0,61.0,90,30.15,10.0,SSE,9.2,-,N/A,,Mostly Cloudy,150,2013-08-17 06:53:00
2:53 AM,63.0,60.1,90,30.15,10.0,SSE,5.8,-,N/A,,Mostly Cloudy,160,2013-08-17 07:53:00
3:53 AM,63.0,60.1,90,30.15,10.0,South,6.9,-,N/A,,Mostly Cloudy,170,2013-08-17 08:53:00
4:53 AM,63.0,59.0,87,30.14,10.0,SSE,10.4,-,N/A,,Mostly Cloudy,160,2013-08-17 09:53:00
5:53 AM,62.1,59.0,90,30.14,10.0,SSE,9.2,-,N/A,,Partly Cloudy,150,2013-08-17 10:53:00
6:53 AM,61.0,59.0,93,30.14,8.0,SSE,8.1,-,N/A,,Clear,160,2013-08-17 11:53:00
7:53 AM,62.1,59.0,90,30.15,9.0,South,10.4,-,N/A,,Clear,170,2013-08-17 12:53:00
8:53 AM,66.0,60.1,81,30.15,10.0,South,12.7,-,N/A,,Clear,170,2013-08-17 13:53:00
9:53 AM,69.1,61.0,75,30.15,10.0,South,11.5,-,N/A,,Clear,170,2013-08-17 14:53:00
10:53 AM,73.0,63.0,71,30.15,10.0,SSE,12.7,-,N/A,,Partly Cloudy,160,2013-08-17 15:53:00
11:53 AM,75.0,64.0,69,30.14,10.0,South,10.4,-,N/A,,Scattered Clouds,180,2013-08-17 16:53:00
12:02 PM,75.2,64.4,69,30.17,10.0,South,10.4,-,N/A,,Mostly Cloudy,170,2013-08-17 17:02:00
12:32 PM,75.2,64.4,69,30.16,10.0,SSE,12.7,-,N/A,,Scattered Clouds,160,2013-08-17 17:32:00
12:53 PM,75.0,63.0,66,30.13,10.0,South,12.7,-,N/A,,Mostly Cloudy,180,2013-08-17 17:53:00
1:53 PM,75.9,63.0,64,30.12,10.0,South,9.2,-,N/A,,Mostly Cloudy,170,2013-08-17 18:53:00
2:53 PM,77.0,63.0,62,30.10,10.0,South,12.7,-,N/A,,Mostly Cloudy,170,2013-08-17 19:53:00
3:53 PM,77.0,64.0,64,30.09,10.0,SE,9.2,-,N/A,,Overcast,140,2013-08-17 20:53:00
4:53 PM,75.9,64.0,67,30.09,10.0,SSE,12.7,-,N/A,,Mostly Cloudy,150,2013-08-17 21:53:00
5:53 PM,75.0,63.0,66,30.08,10.0,SE,13.8,-,N/A,,Overcast,140,2013-08-17 22:53:00
6:53 PM,73.9,62.1,66,30.08,10.0,SE,11.5,-,N/A,,Scattered Clouds,140,2013-08-17 23:53:00
7:53 PM,72.0,62.1,71,30.08,10.0,SE,9.2,-,N/A,,Mostly Cloudy,140,2013-08-18 00:53:00
8:53 PM,70.0,61.0,73,30.08,10.0,SE,9.2,-,N/A,,Mostly Cloudy,140,2013-08-18 01:53:00
9:53 PM,68.0,60.1,76,30.09,10.0,SE,8.1,-,N/A,,Scattered Clouds,140,2013-08-18 02:53:00
10:53 PM,66.9,59.0,76,30.09,10.0,SE,10.4,-,N/A,,Mostly Cloudy,140,2013-08-18 03:53:00
11:53 PM,64.9,59.0,81,30.10,10.0,SSE,6.9,-,N/A,,Scattered Clouds,150,2013-08-18 04:53:00